Regional Weather Roundup
Issued by NWS Sterling, VA

Home | Current Version | Previous Version | Graphics & Text | Print | Product List | Glossary On
Versions: 1 2 3 4 5 6 7 8 9 10 11 12 13 14 15 16 17 18 19 20 21 22 23 24 25 26 27 28 29 30 31 32 33 34 35 36 37 38 39 40 41 42 43 44 45 46 47 48 49 50
587
ASUS41 KLWX 261510
RWRLWX

REGIONAL WEATHER ROUNDUP
NATIONAL WEATHER SERVICE BALTIMORE MD/WASHINGTON DC
1100 AM EDT FRI AUG 26 2016

Note: "FAIR" indicates few or no clouds below 12,000 feet
with no significant weather and/or obstructions to visibility.
 TC=TEMPERATURE CELSIUS

 * =Non NWS site. Station does not report precipitation (e.g. rain,
    snow, etc.), thunder, or fog.

DCZ001-MDZ009-015-VAZ040>042-051-053>054-261600-
WASHINGTON METRO

CITY           SKY/WX    TMP DP  RH WIND       PRES   REMARKS
WASHINGTON NAT MOSUNNY   91  72  53 N12       30.07S HX  98
DULLES         MOSUNNY   91  70  49 NW8       30.09R HX  96
FT BELVOIR     SUNNY     90  71  53 W5        30.07S HX  97
QUANTICO       PTSUNNY   88  76  67 CALM      30.08S HX  99
COLLEGE PARK*  SUNNY     88  70  55 N9        30.06S HX  92
LEESBURG*      MOSUNNY   88  73  62 W14G21    30.10R HX  96
MANASSAS*      PTSUNNY   90  72  55 N8        30.08S HX  96
GAITHERSBURG*  SUNNY     84  72  65 W9        30.12S

$$

MDZ006>007-011-014-261600-
BALTIMORE METRO

CITY           SKY/WX    TMP DP  RH WIND       PRES   REMARKS
BWI AIRPORT    MOSUNNY   88  70  55 NW9       30.06R HX  93
MD SCIENCE CTR   N/A     89  68  49 MISG      30.05R HX  93
MARTIN STATE   MOSUNNY   90  77  66 W12       30.06R HX 102
ANNAPOLIS      SUNNY     88  71  57 NW9       30.05R HX  94
FORT MEADE*    SUNNY    N/A N/A N/A CALM      30.09R

$$

MDZ012-015-019>023-261600-
MARYLAND EASTERN SHORE

CITY           SKY/WX    TMP DP  RH WIND       PRES   REMARKS
OCEAN CITY     SUNNY     88  77  69 W6        30.05S HX 100
SALISBURY      SUNNY     88  76  67 W6        30.05S HX  99
BAY BRIDGE AP* SUNNY     86  77  74 NW3       30.05S HX  97
EASTON*        SUNNY     90  81  74 NW7       30.08  HX 108

$$

MDZ017>025-261600-
SOUTHERN MARYLAND

CITY           SKY/WX    TMP DP  RH WIND       PRES   REMARKS
PATUXENT RIVER MOSUNNY   89  74  60 NW8       30.06S HX  98
ST INIGOES     SUNNY     87  78  74 SW7       30.06S HX 100
LEONARDTOWN*   SUNNY     88  72  58 N3        30.09R HX  94

$$

MDZ003>005-261600-
NORTH CENTRAL MARYLAND

CITY           SKY/WX    TMP DP  RH WIND       PRES   REMARKS
FREDERICK*     MOSUNNY   88  73  62 N9        30.10S HX  96
HAGERSTOWN APT MOSUNNY   86  69  56 NW9       30.10R HX  90

$$

MDZ501>502-261600-
WESTERN MARYLAND

CITY           SKY/WX    TMP DP  RH WIND       PRES   REMARKS
OAKLAND*       PTSUNNY   72  66  83 NW5       30.25S
CUMBERLAND*    SUNNY     88  68  51 NW12      30.15S HX  91

$$

VAZ025>031-261600-
SHENANDOAH VALLEY

CITY           SKY/WX    TMP DP  RH WIND       PRES   REMARKS
WINCHESTER*    PTSUNNY   86  70  58 NW9       30.12R HX  90
FRONT ROYAL*   PTSUNNY   86  75  70 CALM      30.11R HX  95
LURAY*         FAIR      86  72  62 CALM      30.13R HX  92
NEW MARKET*    FAIR     N/A N/A N/A CALM      30.11S
STAUNTON*      SUNNY     83  70  64 SE5       30.17S
WAYNESBORO*    FAIR      84  69  59 NE5       30.17R

$$

WVZ021-048>050-054>055-261600-
EASTERN WEST VIRGINIA PANHANDLE

CITY           SKY/WX    TMP DP  RH WIND       PRES   REMARKS
MARTINSBURG    SUNNY     86  70  58 NW10      30.10R HX  90
PETERSBURG*    MOSUNNY   89  70  52 NW7       30.13R HX  94

$$

VAZ036>039-050-261600-
CENTRAL FOOTHILLS

CITY           SKY/WX    TMP DP  RH WIND       PRES   REMARKS
CHARLOTTESVILL SUNNY     90  70  51 VRB3      30.11S HX  95
CULPEPER*      SUNNY     88  74  63 CALM      30.10S HX  97
ORANGE*          N/A     90  70  51 CALM      30.11S HX  95
GORDONSVILLE*  FAIR      90  72  55 CALM      30.10S HX  96
WARRENTON*     FAIR      91  67  46 N9        30.09S HX  94

$$

VAZ055>057-261600-
NORTH AND CENTRAL PIEDMONT

CITY           SKY/WX    TMP DP  RH WIND       PRES   REMARKS
FREDERICKSBRG* SUNNY     90  73  56 N5        30.07S HX  98
STAFFORD*      MOSUNNY   91  69  49 N10       30.12S HX  95

$$

NCZ024-NYZ072-PAZ021-071-VAZ022-071-261600-
OTHER REGIONAL OBSERVATIONS

CITY           SKY/WX    TMP DP  RH WIND       PRES   REMARKS
NEW YORK CITY    N/A     86  72  62 MISG        N/A  HX  92
PHILADELPHIA   MOSUNNY   88  70  55 NW13G21   30.02S HX  93
PITTSBURGH     PTSUNNY   78  68  71 VRB6      30.16R
ROANOKE        MOSUNNY   87  70  56 NW8       30.18R HX  92
RICHMOND       PTSUNNY   90  72  55 N10       30.08S HX  97
RALEIGH        MOSUNNY   90  72  55 N8        30.11R HX  97

$$

ANZ530>537-261600-
MARINE OBSERVATIONS

STATION/POSITION TIME  TEMP    WIND        PRES
                       AIR SEA DIR/SP/G
                 (UTC) (F)     (DEG/KT/KT) (MB)
THOMAS PT LIGHT  1500   86 81  340/  7/  8 1019.1R
BALT KEY BRIDGE  1448   87     310/  8/ 10 1017.5R
COVE POINT       1448   83      60/  1/  3 1018.5R
LEWISETTA        1448   84 82   10/  5/  7 1017.9R
SOLOMONS ISLAND  1442   87 83  310/  5/  8   N/A
PINEY POINT      1448          310/  9/ 10   N/A

$$





USA.gov is the U.S. government's official web portal to all federal, state and local government web resources and services.